Time,TemperatureF,DewpointF,PressureIn,WindDirection,WindDirectionDegrees,WindSpeedMPH,WindSpeedGustMPH,Humidity,HourlyPrecipIn,Conditions,Clouds,dailyrainin,SoftwareType,DateUTC
2013-04-16 00:04:00,37.6,33.2,30.10,SW,225,0.0,0.0,84,0.00,,,0.00,WUHU216HW,2013-04-16 07:04:00,
2013-04-16 00:09:00,37.4,33.3,30.10,SW,225,0.0,0.0,85,0.00,,,0.00,WUHU216HW,2013-04-16 07:09:00,
2013-04-16 00:14:00,37.3,33.1,30.11,SW,225,0.0,0.0,85,0.00,,,0.00,WUHU216HW,2013-04-16 07:14:00,
2013-04-16 00:19:00,37.3,33.1,30.11,SW,225,0.0,0.0,85,0.00,,,0.00,WUHU216HW,2013-04-16 07:19:00,
2013-04-16 00:24:00,37.1,32.9,30.11,SE,135,0.0,0.0,85,0.00,,,0.00,WUHU216HW,2013-04-16 07:24:00,
2013-04-16 00:29:00,37.1,32.9,30.11,SE,135,0.0,0.0,85,0.00,,,0.00,WUHU216HW,2013-04-16 07:29:00,
2013-04-16 00:34:00,36.9,32.8,30.11,SE,135,0.0,0.0,85,0.00,,,0.00,WUHU216HW,2013-04-16 07:34:00,
2013-04-16 00:39:00,36.9,32.8,30.12,SE,135,0.0,0.0,85,0.00,,,0.00,WUHU216HW,2013-04-16 07:39:00,
2013-04-16 00:44:00,36.7,32.9,30.12,SSW,203,0.2,0.4,86,0.00,,,0.00,WUHU216HW,2013-04-16 07:44:00,
2013-04-16 00:50:00,36.9,33.0,30.12,SSW,203,0.0,0.4,86,0.00,,,0.00,WUHU216HW,2013-04-16 07:50:00,
2013-04-16 00:55:00,36.9,33.0,30.12,SSW,203,0.0,0.2,86,0.00,,,0.00,WUHU216HW,2013-04-16 07:55:00,
2013-04-16 01:00:00,36.9,33.0,30.12,SSW,203,0.0,0.0,86,0.00,,,0.00,WUHU216HW,2013-04-16 08:00:00,
2013-04-16 01:05:00,36.7,32.9,30.12,SSW,203,0.0,0.0,86,0.00,,,0.00,WUHU216HW,2013-04-16 08:05:00,
2013-04-16 01:10:00,36.5,32.7,30.12,SW,225,0.0,0.0,86,0.00,,,0.00,WUHU216HW,2013-04-16 08:10:00,
2013-04-16 01:15:00,36.5,32.7,30.13,WSW,248,0.0,0.2,86,0.00,,,0.00,WUHU216HW,2013-04-16 08:15:00,
2013-04-16 01:20:00,36.4,32.5,30.12,SW,225,0.0,0.2,86,0.00,,,0.00,WUHU216HW,2013-04-16 08:20:00,
2013-04-16 01:25:00,36.4,32.5,30.13,SW,225,0.0,0.2,86,0.00,,,0.00,WUHU216HW,2013-04-16 08:25:00,
2013-04-16 01:30:00,36.2,32.3,30.13,SW,225,0.0,0.2,86,0.00,,,0.00,WUHU216HW,2013-04-16 08:30:00,
2013-04-16 01:35:00,36.2,32.3,30.13,SW,225,0.0,0.2,86,0.00,,,0.00,WUHU216HW,2013-04-16 08:35:00,
2013-04-16 01:40:00,36.0,32.1,30.13,SW,225,0.0,0.0,86,0.00,,,0.00,WUHU216HW,2013-04-16 08:40:00,
2013-04-16 01:45:00,36.0,32.1,30.13,SW,225,0.0,0.0,86,0.00,,,0.00,WUHU216HW,2013-04-16 08:45:00,
2013-04-16 01:50:00,36.0,32.1,30.13,SSE,158,0.0,0.0,86,0.00,,,0.00,WUHU216HW,2013-04-16 08:50:00,
2013-04-16 01:55:00,35.8,32.2,30.13,SSE,158,0.0,0.0,87,0.00,,,0.00,WUHU216HW,2013-04-16 08:55:00,
2013-04-16 02:01:00,35.8,32.2,30.13,SSE,158,0.0,0.0,87,0.00,,,0.00,WUHU216HW,2013-04-16 09:01:00,
2013-04-16 02:06:00,35.6,31.8,30.13,SSE,158,0.0,0.0,86,0.00,,,0.00,WUHU216HW,2013-04-16 09:06:00,
2013-04-16 02:11:00,35.6,31.8,30.13,SSE,158,0.0,0.0,86,0.00,,,0.00,WUHU216HW,2013-04-16 09:11:00,
2013-04-16 02:16:00,35.6,31.8,30.13,SSE,158,0.0,0.0,86,0.00,,,0.00,WUHU216HW,2013-04-16 09:16:00,
2013-04-16 02:21:00,35.6,31.8,30.13,ESE,113,0.0,0.0,86,0.00,,,0.00,WUHU216HW,2013-04-16 09:21:00,
2013-04-16 02:26:00,35.3,31.4,30.13,ENE,68,0.0,0.0,86,0.00,,,0.00,WUHU216HW,2013-04-16 09:26:00,
2013-04-16 02:31:00,35.1,31.2,30.13,ENE,68,0.0,0.0,86,0.00,,,0.00,WUHU216HW,2013-04-16 09:31:00,
2013-04-16 02:36:00,34.9,31.1,30.13,ENE,68,0.0,0.0,86,0.00,,,0.00,WUHU216HW,2013-04-16 09:36:00,
2013-04-16 02:42:00,34.9,31.1,30.14,ENE,68,0.0,0.0,86,0.00,,,0.00,WUHU216HW,2013-04-16 09:42:00,
2013-04-16 02:47:00,34.9,31.1,30.14,ENE,68,0.0,0.0,86,0.00,,,0.00,WUHU216HW,2013-04-16 09:47:00,
2013-04-16 02:52:00,34.7,30.9,30.14,ENE,68,0.0,0.0,86,0.00,,,0.00,WUHU216HW,2013-04-16 09:52:00,
2013-04-16 02:57:00,34.7,30.9,30.14,ENE,68,0.0,0.0,86,0.00,,,0.00,WUHU216HW,2013-04-16 09:57:00,
2013-04-16 03:02:00,34.6,30.7,30.14,ENE,68,0.0,0.0,86,0.00,,,0.00,WUHU216HW,2013-04-16 10:02:00,
2013-04-16 03:07:00,34.6,30.7,30.14,ENE,68,0.0,0.0,86,0.00,,,0.00,WUHU216HW,2013-04-16 10:07:00,
2013-04-16 03:12:00,34.4,30.5,30.14,ENE,68,0.0,0.0,86,0.00,,,0.00,WUHU216HW,2013-04-16 10:12:00,
2013-04-16 03:17:00,34.2,30.3,30.15,ENE,68,0.0,0.0,86,0.00,,,0.00,WUHU216HW,2013-04-16 10:17:00,
2013-04-16 03:22:00,34.2,30.3,30.15,ENE,68,0.0,0.0,86,0.00,,,0.00,WUHU216HW,2013-04-16 10:22:00,
2013-04-16 03:27:00,34.2,30.3,30.15,NE,45,0.0,0.0,86,0.00,,,0.00,WUHU216HW,2013-04-16 10:27:00,
2013-04-16 03:32:00,34.2,30.3,30.15,North,0,0.0,0.0,86,0.00,,,0.00,WUHU216HW,2013-04-16 10:32:00,
2013-04-16 03:37:00,34.2,30.3,30.15,NW,315,0.0,0.0,86,0.00,,,0.00,WUHU216HW,2013-04-16 10:37:00,
2013-04-16 03:42:00,34.2,30.3,30.15,NW,315,0.0,0.0,86,0.00,,,0.00,WUHU216HW,2013-04-16 10:42:00,
2013-04-16 03:48:00,34.2,30.3,30.15,NW,315,0.0,0.0,86,0.00,,,0.00,WUHU216HW,2013-04-16 10:48:00,
2013-04-16 03:53:00,34.2,30.3,30.15,NW,315,0.0,0.0,86,0.00,,,0.00,WUHU216HW,2013-04-16 10:53:00,
2013-04-16 03:58:00,34.2,30.3,30.16,NW,315,0.0,0.2,86,0.00,,,0.00,WUHU216HW,2013-04-16 10:58:00,
2013-04-16 04:03:00,34.2,30.6,30.16,NW,315,0.0,0.2,87,0.00,,,0.00,WUHU216HW,2013-04-16 11:03:00,
2013-04-16 04:08:00,34.2,30.6,30.16,NW,315,0.0,0.0,87,0.00,,,0.00,WUHU216HW,2013-04-16 11:08:00,
2013-04-16 04:13:00,34.2,30.6,30.16,NW,315,0.0,0.0,87,0.00,,,0.00,WUHU216HW,2013-04-16 11:13:00,
2013-04-16 04:18:00,34.2,30.6,30.16,NW,315,0.0,0.0,87,0.00,,,0.00,WUHU216HW,2013-04-16 11:18:00,
2013-04-16 04:23:00,34.0,30.4,30.16,NW,315,0.0,0.0,87,0.00,,,0.00,WUHU216HW,2013-04-16 11:23:00,
2013-04-16 04:28:00,34.0,30.4,30.16,NW,315,0.0,0.0,87,0.00,,,0.00,WUHU216HW,2013-04-16 11:28:00,
2013-04-16 04:33:00,33.8,30.2,30.16,NW,315,0.0,0.0,87,0.00,,,0.00,WUHU216HW,2013-04-16 11:33:00,
2013-04-16 04:38:00,33.8,30.2,30.16,NNW,338,0.0,0.0,87,0.00,,,0.00,WUHU216HW,2013-04-16 11:38:00,
2013-04-16 04:43:00,33.7,30.2,30.17,NNW,338,0.0,0.0,87,0.00,,,0.00,WUHU216HW,2013-04-16 11:43:00,
2013-04-16 04:48:00,33.5,30.0,30.16,NNW,338,0.0,0.0,87,0.00,,,0.00,WUHU216HW,2013-04-16 11:48:00,
2013-04-16 04:53:00,33.5,30.0,30.17,NNW,338,0.0,0.0,87,0.00,,,0.00,WUHU216HW,2013-04-16 11:53:00,
2013-04-16 04:58:00,33.3,29.8,30.17,NNW,338,0.0,0.0,87,0.00,,,0.00,WUHU216HW,2013-04-16 11:58:00,
2013-04-16 05:03:00,32.9,29.4,30.17,NNW,338,0.0,0.0,87,0.00,,,0.00,WUHU216HW,2013-04-16 12:03:00,
2013-04-16 05:09:00,32.8,29.4,30.17,NNW,338,0.0,0.0,87,0.00,,,0.00,WUHU216HW,2013-04-16 12:09:00,
2013-04-16 05:14:00,32.8,29.4,30.18,NNW,338,0.0,0.0,87,0.00,,,0.00,WUHU216HW,2013-04-16 12:14:00,
2013-04-16 05:19:00,32.8,29.4,30.18,NNW,338,0.2,0.4,87,0.00,,,0.00,WUHU216HW,2013-04-16 12:19:00,
2013-04-16 05:24:00,32.9,29.4,30.18,NNW,338,0.0,0.4,87,0.00,,,0.00,WUHU216HW,2013-04-16 12:24:00,
2013-04-16 05:29:00,33.1,29.6,30.18,NNW,338,0.0,0.2,87,0.00,,,0.00,WUHU216HW,2013-04-16 12:29:00,
2013-04-16 05:34:00,33.3,30.1,30.18,NNW,338,0.0,0.2,88,0.00,,,0.00,WUHU216HW,2013-04-16 12:34:00,
2013-04-16 05:39:00,33.5,30.2,30.18,NNW,338,0.0,0.2,88,0.00,,,0.00,WUHU216HW,2013-04-16 12:39:00,
2013-04-16 05:44:00,33.5,30.2,30.18,NNW,338,0.0,0.0,88,0.00,,,0.00,WUHU216HW,2013-04-16 12:44:00,
2013-04-16 05:49:00,33.5,30.2,30.19,NNW,338,0.0,0.0,88,0.00,,,0.00,WUHU216HW,2013-04-16 12:49:00,
2013-04-16 05:54:00,33.7,30.4,30.18,NNW,338,0.0,0.0,88,0.00,,,0.00,WUHU216HW,2013-04-16 12:54:00,
2013-04-16 05:59:00,33.7,30.4,30.18,NNW,338,0.0,0.0,88,0.00,,,0.00,WUHU216HW,2013-04-16 12:59:00,
2013-04-16 06:04:00,33.8,30.6,30.18,NNW,338,0.0,0.2,88,0.00,,,0.00,WUHU216HW,2013-04-16 13:04:00,
2013-04-16 06:09:00,33.8,30.6,30.19,NNW,338,0.0,0.2,88,0.00,,,0.00,WUHU216HW,2013-04-16 13:09:00,
2013-04-16 06:14:00,33.8,30.6,30.19,NNW,338,0.0,0.4,88,0.00,,,0.00,WUHU216HW,2013-04-16 13:14:00,
2013-04-16 06:20:00,33.8,30.6,30.19,NNW,338,0.0,0.4,88,0.00,,,0.00,WUHU216HW,2013-04-16 13:20:00,
2013-04-16 06:25:00,34.2,31.0,30.19,NNW,338,0.0,0.0,88,0.00,,,0.00,WUHU216HW,2013-04-16 13:25:00,
2013-04-16 06:30:00,34.2,31.0,30.20,NNW,338,0.0,0.0,88,0.00,,,0.00,WUHU216HW,2013-04-16 13:30:00,
2013-04-16 06:35:00,34.4,31.2,30.20,NNW,338,0.0,0.0,88,0.00,,,0.00,WUHU216HW,2013-04-16 13:35:00,
2013-04-16 06:40:00,34.4,31.2,30.20,NNW,338,0.0,0.0,88,0.00,,,0.00,WUHU216HW,2013-04-16 13:40:00,
2013-04-16 06:45:00,34.6,31.3,30.20,NNW,338,0.0,0.0,88,0.00,,,0.00,WUHU216HW,2013-04-16 13:45:00,
2013-04-16 06:50:00,34.6,31.3,30.20,NNW,338,0.0,0.0,88,0.00,,,0.00,WUHU216HW,2013-04-16 13:50:00,
2013-04-16 06:55:00,34.7,31.5,30.21,NNW,338,0.0,0.0,88,0.00,,,0.00,WUHU216HW,2013-04-16 13:55:00,
2013-04-16 07:00:00,34.9,31.7,30.21,NNW,338,0.0,0.0,88,0.00,,,0.00,WUHU216HW,2013-04-16 14:00:00,
2013-04-16 07:05:00,35.1,31.9,30.21,NNW,338,0.0,0.0,88,0.00,,,0.00,WUHU216HW,2013-04-16 14:05:00,
2013-04-16 07:10:00,35.3,32.1,30.21,NNW,338,0.0,0.0,88,0.00,,,0.00,WUHU216HW,2013-04-16 14:10:00,
2013-04-16 07:15:00,35.5,32.2,30.21,NNW,338,0.2,0.2,88,0.00,,,0.00,WUHU216HW,2013-04-16 14:15:00,
2013-04-16 07:20:00,35.6,32.4,30.21,North,0,0.0,0.4,88,0.00,,,0.00,WUHU216HW,2013-04-16 14:20:00,
2013-04-16 07:26:00,35.8,32.6,30.22,North,0,0.0,0.4,88,0.00,,,0.00,WUHU216HW,2013-04-16 14:26:00,
2013-04-16 07:31:00,36.0,32.8,30.22,North,0,0.0,0.2,88,0.00,,,0.00,WUHU216HW,2013-04-16 14:31:00,
2013-04-16 07:36:00,36.4,33.1,30.22,North,0,0.0,0.0,88,0.00,,,0.00,WUHU216HW,2013-04-16 14:36:00,
2013-04-16 07:41:00,36.4,33.1,30.22,North,0,0.2,0.2,88,0.00,,,0.00,WUHU216HW,2013-04-16 14:41:00,
2013-04-16 07:46:00,36.5,33.3,30.22,NE,45,0.0,0.4,88,0.00,,,0.00,WUHU216HW,2013-04-16 14:46:00,
2013-04-16 07:51:00,36.7,33.5,30.22,NE,45,0.0,0.4,88,0.00,,,0.00,WUHU216HW,2013-04-16 14:51:00,
2013-04-16 07:56:00,36.9,33.7,30.22,NE,45,0.0,0.2,88,0.00,,,0.00,WUHU216HW,2013-04-16 14:56:00,
2013-04-16 08:01:00,37.1,33.9,30.22,NE,45,0.0,0.0,88,0.00,,,0.00,WUHU216HW,2013-04-16 15:01:00,
2013-04-16 08:06:00,37.3,34.0,30.23,ESE,113,0.2,0.2,88,0.00,,,0.00,WUHU216HW,2013-04-16 15:06:00,
2013-04-16 08:11:00,37.6,34.7,30.23,ENE,68,0.0,0.4,89,0.00,,,0.00,WUHU216HW,2013-04-16 15:11:00,
2013-04-16 08:16:00,37.8,34.8,30.23,East,90,0.0,0.4,89,0.00,,,0.00,WUHU216HW,2013-04-16 15:16:00,
2013-04-16 08:22:00,38.2,35.2,30.23,East,90,0.0,0.4,89,0.00,,,0.00,WUHU216HW,2013-04-16 15:22:00,
2013-04-16 08:27:00,38.7,35.7,30.23,East,90,0.0,0.0,89,0.00,,,0.00,WUHU216HW,2013-04-16 15:27:00,
2013-04-16 08:32:00,40.1,37.4,30.23,ENE,68,0.0,0.0,90,0.00,,,0.00,WUHU216HW,2013-04-16 15:32:00,
2013-04-16 08:37:00,41.9,39.2,30.23,East,90,0.4,0.4,90,0.00,,,0.00,WUHU216HW,2013-04-16 15:37:00,
2013-04-16 08:42:00,43.6,40.9,30.23,ESE,113,2.0,2.2,90,0.00,,,0.00,WUHU216HW,2013-04-16 15:42:00,
2013-04-16 08:47:00,45.0,42.3,30.23,ESE,113,0.9,2.2,90,0.01,,,0.01,WUHU216HW,2013-04-16 15:47:00,
2013-04-16 08:52:00,46.1,43.1,30.23,East,90,0.2,2.0,89,0.01,,,0.01,WUHU216HW,2013-04-16 15:52:00,
2013-04-16 08:57:00,47.2,43.8,30.23,ESE,113,1.8,1.8,88,0.01,,,0.01,WUHU216HW,2013-04-16 15:57:00,
2013-04-16 09:02:00,48.4,44.4,30.23,ESE,113,1.8,2.5,86,0.01,,,0.01,WUHU216HW,2013-04-16 16:02:00,
2013-04-16 09:07:00,49.3,44.9,30.23,NNE,23,2.0,2.5,85,0.01,,,0.01,WUHU216HW,2013-04-16 16:07:00,
2013-04-16 09:12:00,49.9,45.2,30.23,ENE,68,0.9,2.2,84,0.01,,,0.01,WUHU216HW,2013-04-16 16:12:00,
2013-04-16 09:17:00,50.2,45.6,30.24,NE,45,2.9,2.9,84,0.01,,,0.01,WUHU216HW,2013-04-16 16:17:00,
2013-04-16 09:23:00,51.1,45.8,30.24,SSE,158,1.1,3.4,82,0.01,,,0.01,WUHU216HW,2013-04-16 16:23:00,
2013-04-16 09:28:00,51.5,46.2,30.24,North,0,0.4,3.4,82,0.01,,,0.01,WUHU216HW,2013-04-16 16:28:00,
2013-04-16 09:33:00,51.5,45.5,30.25,NNE,23,0.0,2.0,80,0.01,,,0.01,WUHU216HW,2013-04-16 16:33:00,
2013-04-16 09:38:00,51.7,45.7,30.25,ESE,113,1.8,1.8,80,0.01,,,0.01,WUHU216HW,2013-04-16 16:38:00,
2013-04-16 09:43:00,51.8,45.5,30.25,SW,225,1.1,2.5,79,0.01,,,0.01,WUHU216HW,2013-04-16 16:43:00,
2013-04-16 09:48:00,51.3,44.6,30.25,West,270,1.1,2.5,78,0.00,,,0.01,WUHU216HW,2013-04-16 16:48:00,
2013-04-16 09:53:00,50.8,44.1,30.25,NW,315,1.1,2.5,78,0.00,,,0.01,WUHU216HW,2013-04-16 16:53:00,
2013-04-16 09:58:00,50.0,42.8,30.25,NNW,338,0.0,2.2,76,0.00,,,0.01,WUHU216HW,2013-04-16 16:58:00,
2013-04-16 10:03:00,49.3,42.4,30.25,West,270,1.1,2.5,77,0.00,,,0.01,WUHU216HW,2013-04-16 17:03:00,
2013-04-16 10:08:00,49.1,42.5,30.25,WSW,248,0.9,2.5,78,0.00,,,0.01,WUHU216HW,2013-04-16 17:08:00,
2013-04-16 10:13:00,49.3,42.7,30.25,West,270,0.2,1.8,78,0.00,,,0.01,WUHU216HW,2013-04-16 17:13:00,
2013-04-16 10:18:00,49.3,43.0,30.25,SSW,203,0.7,1.8,79,0.00,,,0.01,WUHU216HW,2013-04-16 17:18:00,
2013-04-16 10:23:00,49.7,43.4,30.25,SSW,203,0.7,2.0,79,0.00,,,0.01,WUHU216HW,2013-04-16 17:23:00,
2013-04-16 10:28:00,49.9,43.6,30.25,SE,135,0.2,2.0,79,0.00,,,0.01,WUHU216HW,2013-04-16 17:28:00,
2013-04-16 10:34:00,49.9,43.2,30.25,NW,315,0.0,1.1,78,0.00,,,0.01,WUHU216HW,2013-04-16 17:34:00,
2013-04-16 10:39:00,49.9,43.2,30.25,North,0,0.0,1.1,78,0.00,,,0.01,WUHU216HW,2013-04-16 17:39:00,
2013-04-16 10:44:00,49.7,43.0,30.25,NNW,338,0.2,1.1,78,0.00,,,0.01,WUHU216HW,2013-04-16 17:44:00,
2013-04-16 10:49:00,49.7,43.0,30.25,South,180,1.1,2.0,78,0.00,,,0.01,WUHU216HW,2013-04-16 17:49:00,
2013-04-16 10:54:00,49.9,43.2,30.25,SE,135,1.1,2.0,78,0.00,,,0.01,WUHU216HW,2013-04-16 17:54:00,
2013-04-16 10:59:00,50.0,43.4,30.25,SSE,158,0.4,1.3,78,0.00,,,0.01,WUHU216HW,2013-04-16 17:59:00,
2013-04-16 11:04:00,50.6,43.9,30.25,NNE,23,0.4,1.3,78,0.00,,,0.01,WUHU216HW,2013-04-16 18:04:00,
2013-04-16 11:09:00,50.4,43.1,30.25,SSE,158,1.8,2.5,76,0.00,,,0.01,WUHU216HW,2013-04-16 18:09:00,
2013-04-16 11:14:00,50.9,44.0,30.25,NNW,338,0.0,2.5,77,0.00,,,0.01,WUHU216HW,2013-04-16 18:14:00,
2013-04-16 11:19:00,51.8,44.2,30.25,NNW,338,0.4,2.2,75,0.00,,,0.01,WUHU216HW,2013-04-16 18:19:00,
2013-04-16 11:24:00,52.6,44.6,30.25,NNE,23,1.1,1.8,74,0.00,,,0.01,WUHU216HW,2013-04-16 18:24:00,
2013-04-16 11:29:00,52.9,44.8,30.25,West,270,0.4,1.1,74,0.00,,,0.01,WUHU216HW,2013-04-16 18:29:00,
2013-04-16 11:34:00,53.1,44.6,30.25,SSW,203,1.1,1.8,73,0.00,,,0.01,WUHU216HW,2013-04-16 18:34:00,
2013-04-16 11:40:00,54.0,45.9,30.25,WNW,293,0.4,2.5,74,0.00,,,0.01,WUHU216HW,2013-04-16 18:40:00,
2013-04-16 11:45:00,54.2,44.6,30.25,NNW,338,0.0,2.5,70,0.00,,,0.01,WUHU216HW,2013-04-16 18:45:00,
2013-04-16 11:50:00,54.5,45.7,30.25,SSW,203,1.1,2.7,72,0.00,,,0.01,WUHU216HW,2013-04-16 18:50:00,
2013-04-16 11:55:00,55.4,46.9,30.25,WSW,248,2.9,4.7,73,0.00,,,0.01,WUHU216HW,2013-04-16 18:55:00,
2013-04-16 12:00:00,56.5,47.3,30.25,NNE,23,0.4,4.7,71,0.00,,,0.01,WUHU216HW,2013-04-16 19:00:00,
2013-04-16 12:05:00,56.9,46.8,30.25,NNW,338,0.9,2.9,69,0.00,,,0.01,WUHU216HW,2013-04-16 19:05:00,
2013-04-16 12:10:00,56.2,45.4,30.25,SE,135,3.4,3.4,67,0.00,,,0.01,WUHU216HW,2013-04-16 19:10:00,
2013-04-16 12:15:00,56.3,45.9,30.25,ENE,68,1.8,3.6,68,0.00,,,0.01,WUHU216HW,2013-04-16 19:15:00,
2013-04-16 12:20:00,56.5,45.6,30.26,NNE,23,0.2,4.5,67,0.00,,,0.01,WUHU216HW,2013-04-16 19:20:00,
2013-04-16 12:26:00,57.1,46.2,30.25,SE,135,3.4,4.5,67,0.00,,,0.01,WUHU216HW,2013-04-16 19:26:00,
2013-04-16 12:31:00,56.9,45.6,30.25,ESE,113,0.2,3.4,66,0.00,,,0.01,WUHU216HW,2013-04-16 19:31:00,
2013-04-16 12:36:00,56.5,45.3,30.25,SSE,158,0.4,3.4,66,0.00,,,0.01,WUHU216HW,2013-04-16 19:36:00,
2013-04-16 12:41:00,56.2,44.9,30.25,SE,135,2.0,2.0,66,0.00,,,0.01,WUHU216HW,2013-04-16 19:41:00,
2013-04-16 12:46:00,55.8,44.6,30.25,SSE,158,1.3,4.0,66,0.00,,,0.01,WUHU216HW,2013-04-16 19:46:00,
2013-04-16 12:51:00,55.8,44.6,30.25,ESE,113,0.7,4.0,66,0.00,,,0.01,WUHU216HW,2013-04-16 19:51:00,
2013-04-16 12:56:00,55.8,44.6,30.25,WNW,293,0.2,2.7,66,0.00,,,0.01,WUHU216HW,2013-04-16 19:56:00,
2013-04-16 13:01:00,56.0,44.7,30.25,North,0,0.4,1.6,66,0.00,,,0.01,WUHU216HW,2013-04-16 20:01:00,
2013-04-16 13:06:00,56.3,44.3,30.25,North,0,0.2,2.0,64,0.00,,,0.01,WUHU216HW,2013-04-16 20:06:00,
2013-04-16 13:12:00,56.9,44.8,30.25,WSW,248,0.9,2.5,64,0.00,,,0.01,WUHU216HW,2013-04-16 20:12:00,
2013-04-16 13:17:00,57.2,45.2,30.25,SSE,158,1.3,2.5,64,0.00,,,0.01,WUHU216HW,2013-04-16 20:17:00,
2013-04-16 13:22:00,57.4,45.3,30.25,SSE,158,0.2,2.5,64,0.00,,,0.01,WUHU216HW,2013-04-16 20:22:00,
2013-04-16 13:27:00,58.0,45.5,30.25,NNW,338,0.4,2.2,63,0.00,,,0.01,WUHU216HW,2013-04-16 20:27:00,
2013-04-16 13:32:00,58.0,43.3,30.25,NNW,338,0.4,1.8,58,0.00,,,0.01,WUHU216HW,2013-04-16 20:32:00,
2013-04-16 13:37:00,58.0,44.2,30.25,NW,315,0.0,4.7,60,0.00,,,0.01,WUHU216HW,2013-04-16 20:37:00,
2013-04-16 13:42:00,57.6,43.4,30.25,WNW,293,0.7,4.7,59,0.00,,,0.01,WUHU216HW,2013-04-16 20:42:00,
2013-04-16 13:47:00,57.6,44.3,30.25,West,270,0.4,2.5,61,0.00,,,0.01,WUHU216HW,2013-04-16 20:47:00,
2013-04-16 13:52:00,57.2,43.6,30.25,ESE,113,1.8,2.5,60,0.00,,,0.01,WUHU216HW,2013-04-16 20:52:00,
2013-04-16 13:57:00,57.1,43.4,30.25,ENE,68,1.8,1.8,60,0.00,,,0.01,WUHU216HW,2013-04-16 20:57:00,
2013-04-16 14:03:00,56.9,42.8,30.25,East,90,0.0,2.5,59,0.00,,,0.01,WUHU216HW,2013-04-16 21:03:00,
2013-04-16 14:08:00,56.7,42.1,30.25,NNE,23,0.0,4.5,58,0.00,,,0.01,WUHU216HW,2013-04-16 21:08:00,
2013-04-16 14:13:00,56.5,42.0,30.25,NNE,23,0.4,4.5,58,0.00,,,0.01,WUHU216HW,2013-04-16 21:13:00,
2013-04-16 14:18:00,55.8,41.7,30.25,NE,45,0.4,4.0,59,0.00,,,0.01,WUHU216HW,2013-04-16 21:18:00,
2013-04-16 14:23:00,55.3,41.1,30.26,ENE,68,3.1,8.7,59,0.00,,,0.01,WUHU216HW,2013-04-16 21:23:00,
2013-04-16 14:28:00,54.2,41.1,30.27,NNE,23,6.9,8.7,61,0.00,,,0.01,WUHU216HW,2013-04-16 21:28:00,
2013-04-16 14:33:00,52.9,40.6,30.27,ENE,68,6.0,8.1,63,0.00,,,0.01,WUHU216HW,2013-04-16 21:33:00,
2013-04-16 14:38:00,52.4,40.5,30.27,ENE,68,2.0,6.9,64,0.00,,,0.01,WUHU216HW,2013-04-16 21:38:00,
2013-04-16 14:43:00,52.2,40.3,30.26,ESE,113,0.0,4.5,64,0.00,,,0.01,WUHU216HW,2013-04-16 21:43:00,
2013-04-16 14:48:00,51.8,41.2,30.27,NNE,23,1.1,3.4,67,0.00,,,0.01,WUHU216HW,2013-04-16 21:48:00,
2013-04-16 14:53:00,51.3,40.7,30.27,NNE,23,2.2,3.4,67,0.00,,,0.01,WUHU216HW,2013-04-16 21:53:00,
2013-04-16 14:58:00,50.8,40.6,30.27,East,90,1.3,2.5,68,0.01,,,0.02,WUHU216HW,2013-04-16 21:58:00,
2013-04-16 15:03:00,50.8,40.6,30.27,East,90,3.1,5.8,68,0.01,,,0.02,WUHU216HW,2013-04-16 22:03:00,
2013-04-16 15:08:00,50.8,39.8,30.27,North,0,0.0,5.8,66,0.02,,,0.03,WUHU216HW,2013-04-16 22:08:00,
2013-04-16 15:14:00,50.9,40.8,30.27,NNE,23,0.2,4.3,68,0.02,,,0.03,WUHU216HW,2013-04-16 22:14:00,
2013-04-16 15:19:00,51.5,41.3,30.27,East,90,0.2,1.6,68,0.02,,,0.03,WUHU216HW,2013-04-16 22:19:00,
2013-04-16 15:24:00,51.7,41.5,30.27,SE,135,0.9,1.6,68,0.02,,,0.03,WUHU216HW,2013-04-16 22:24:00,
2013-04-16 15:29:00,52.2,42.9,30.26,ESE,113,1.3,1.3,70,0.02,,,0.03,WUHU216HW,2013-04-16 22:29:00,
2013-04-16 15:34:00,52.6,43.1,30.26,SSE,158,0.4,1.8,70,0.02,,,0.03,WUHU216HW,2013-04-16 22:34:00,
2013-04-16 15:39:00,52.7,42.9,30.26,East,90,0.9,1.8,69,0.02,,,0.03,WUHU216HW,2013-04-16 22:39:00,
2013-04-16 15:44:00,52.9,41.9,30.26,North,0,0.2,1.6,66,0.02,,,0.03,WUHU216HW,2013-04-16 22:44:00,
2013-04-16 15:49:00,52.9,41.9,30.26,NE,45,1.8,1.8,66,0.02,,,0.03,WUHU216HW,2013-04-16 22:49:00,
2013-04-16 15:54:00,52.9,41.1,30.26,NNW,338,2.0,2.9,64,0.02,,,0.03,WUHU216HW,2013-04-16 22:54:00,
2013-04-16 15:59:00,52.9,41.1,30.26,North,0,0.2,2.9,64,0.01,,,0.03,WUHU216HW,2013-04-16 22:59:00,
2013-04-16 16:04:00,53.3,41.4,30.26,NNE,23,1.3,2.5,64,0.00,,,0.03,WUHU216HW,2013-04-16 23:04:00,
2013-04-16 16:09:00,53.5,41.6,30.25,ESE,113,1.3,2.5,64,0.00,,,0.03,WUHU216HW,2013-04-16 23:09:00,
2013-04-16 16:15:00,54.0,42.0,30.25,North,0,0.0,1.8,64,0.00,,,0.03,WUHU216HW,2013-04-16 23:15:00,
2013-04-16 16:20:00,54.2,41.4,30.25,West,270,1.1,1.3,62,0.00,,,0.03,WUHU216HW,2013-04-16 23:20:00,
2013-04-16 16:25:00,54.4,40.3,30.25,NNE,23,0.4,2.7,59,0.00,,,0.03,WUHU216HW,2013-04-16 23:25:00,
2013-04-16 16:30:00,54.4,38.4,30.26,North,0,0.4,3.1,55,0.00,,,0.03,WUHU216HW,2013-04-16 23:30:00,
2013-04-16 16:35:00,54.4,38.9,30.25,NW,315,0.0,3.1,56,0.00,,,0.03,WUHU216HW,2013-04-16 23:35:00,
2013-04-16 16:40:00,54.4,39.4,30.25,NNW,338,0.2,2.2,57,0.00,,,0.03,WUHU216HW,2013-04-16 23:40:00,
2013-04-16 16:45:00,54.5,38.6,30.26,NNE,23,1.8,3.4,55,0.00,,,0.03,WUHU216HW,2013-04-16 23:45:00,
2013-04-16 16:50:00,54.4,38.9,30.26,West,270,1.8,4.5,56,0.00,,,0.03,WUHU216HW,2013-04-16 23:50:00,
2013-04-16 16:55:00,54.4,39.9,30.26,West,270,0.7,4.5,58,0.00,,,0.03,WUHU216HW,2013-04-16 23:55:00,
2013-04-16 17:00:00,54.4,40.8,30.26,West,270,2.5,5.4,60,0.00,,,0.03,WUHU216HW,2013-04-17 00:00:00,
2013-04-16 17:05:00,54.2,40.6,30.26,WNW,293,0.4,5.4,60,0.00,,,0.03,WUHU216HW,2013-04-17 00:05:00,
2013-04-16 17:10:00,54.2,41.1,30.25,SSW,203,1.1,2.5,61,0.00,,,0.03,WUHU216HW,2013-04-17 00:10:00,
2013-04-16 17:15:00,54.4,41.2,30.25,NNW,338,1.6,3.1,61,0.00,,,0.03,WUHU216HW,2013-04-17 00:15:00,
2013-04-16 17:20:00,54.4,41.2,30.25,West,270,0.7,3.8,61,0.00,,,0.03,WUHU216HW,2013-04-17 00:20:00,
2013-04-16 17:25:00,54.4,41.2,30.25,WNW,293,0.2,4.3,61,0.00,,,0.03,WUHU216HW,2013-04-17 00:25:00,
2013-04-16 17:31:00,54.2,38.8,30.25,NNW,338,0.0,4.3,56,0.00,,,0.03,WUHU216HW,2013-04-17 00:31:00,
2013-04-16 17:36:00,54.2,40.1,30.25,WNW,293,0.4,4.0,59,0.00,,,0.03,WUHU216HW,2013-04-17 00:36:00,
2013-04-16 17:41:00,54.2,39.7,30.25,North,0,1.1,1.6,58,0.00,,,0.03,WUHU216HW,2013-04-17 00:41:00,
2013-04-16 17:46:00,54.2,39.7,30.25,NNE,23,0.4,2.5,58,0.00,,,0.03,WUHU216HW,2013-04-17 00:46:00,
2013-04-16 17:51:00,54.2,40.1,30.25,West,270,0.7,2.5,59,0.00,,,0.03,WUHU216HW,2013-04-17 00:51:00,
2013-04-16 17:56:00,54.4,40.3,30.25,North,0,0.2,3.6,59,0.00,,,0.03,WUHU216HW,2013-04-17 00:56:00,
2013-04-16 18:01:00,54.4,40.3,30.25,NW,315,1.1,3.6,59,0.00,,,0.03,WUHU216HW,2013-04-17 01:01:00,
2013-04-16 18:06:00,54.4,39.9,30.25,WNW,293,2.5,4.9,58,0.00,,,0.03,WUHU216HW,2013-04-17 01:06:00,
2013-04-16 18:11:00,54.2,39.7,30.25,North,0,1.1,4.9,58,0.00,,,0.03,WUHU216HW,2013-04-17 01:11:00,
2013-04-16 18:17:00,54.0,40.0,30.25,North,0,0.0,2.5,59,0.00,,,0.03,WUHU216HW,2013-04-17 01:17:00,
2013-04-16 18:22:00,54.0,40.5,30.25,WSW,248,0.0,1.1,60,0.00,,,0.03,WUHU216HW,2013-04-17 01:22:00,
2013-04-16 18:27:00,53.8,40.3,30.25,WSW,248,0.0,1.1,60,0.00,,,0.03,WUHU216HW,2013-04-17 01:27:00,
2013-04-16 18:32:00,53.6,40.1,30.25,SSE,158,0.0,0.7,60,0.00,,,0.03,WUHU216HW,2013-04-17 01:32:00,
2013-04-16 18:37:00,53.5,40.3,30.25,WNW,293,1.1,2.7,61,0.00,,,0.03,WUHU216HW,2013-04-17 01:37:00,
2013-04-16 18:42:00,53.3,39.8,30.25,SSW,203,2.5,2.7,60,0.00,,,0.03,WUHU216HW,2013-04-17 01:42:00,
2013-04-16 18:47:00,53.1,39.6,30.25,North,0,0.2,5.6,60,0.00,,,0.03,WUHU216HW,2013-04-17 01:47:00,
2013-04-16 18:52:00,52.9,39.0,30.25,NNW,338,0.0,5.6,59,0.00,,,0.03,WUHU216HW,2013-04-17 01:52:00,
2013-04-16 18:57:00,52.9,38.5,30.25,North,0,0.4,2.2,58,0.00,,,0.03,WUHU216HW,2013-04-17 01:57:00,
2013-04-16 19:02:00,52.7,38.4,30.25,NNW,338,1.6,1.6,58,0.00,,,0.03,WUHU216HW,2013-04-17 02:02:00,
2013-04-16 19:07:00,52.6,38.6,30.25,NW,315,0.2,1.6,59,0.00,,,0.03,WUHU216HW,2013-04-17 02:07:00,
2013-04-16 19:12:00,52.2,38.3,30.25,West,270,0.4,1.6,59,0.00,,,0.03,WUHU216HW,2013-04-17 02:12:00,
2013-04-16 19:17:00,52.0,38.1,30.25,WNW,293,0.4,1.6,59,0.00,,,0.03,WUHU216HW,2013-04-17 02:17:00,
2013-04-16 19:22:00,51.7,37.7,30.26,WNW,293,0.0,1.6,59,0.00,,,0.03,WUHU216HW,2013-04-17 02:22:00,
2013-04-16 19:27:00,51.5,38.0,30.26,West,270,0.0,0.9,60,0.00,,,0.03,WUHU216HW,2013-04-17 02:27:00,
2013-04-16 19:33:00,51.1,37.7,30.26,WNW,293,0.0,1.1,60,0.00,,,0.03,WUHU216HW,2013-04-17 02:33:00,
2013-04-16 19:38:00,50.8,37.8,30.26,WNW,293,0.0,1.1,61,0.00,,,0.03,WUHU216HW,2013-04-17 02:38:00,
2013-04-16 19:43:00,50.8,37.8,30.26,West,270,0.0,0.4,61,0.00,,,0.03,WUHU216HW,2013-04-17 02:43:00,
2013-04-16 19:48:00,50.4,37.4,30.26,West,270,0.0,0.4,61,0.00,,,0.03,WUHU216HW,2013-04-17 02:48:00,
2013-04-16 19:53:00,50.0,37.5,30.27,West,270,0.2,1.3,62,0.00,,,0.03,WUHU216HW,2013-04-17 02:53:00,
2013-04-16 19:58:00,50.0,37.5,30.27,West,270,0.9,1.3,62,0.00,,,0.03,WUHU216HW,2013-04-17 02:58:00,
2013-04-16 20:03:00,49.7,37.5,30.27,West,270,0.2,0.9,63,0.00,,,0.03,WUHU216HW,2013-04-17 03:03:00,
2013-04-16 20:08:00,49.3,37.3,30.27,West,270,1.3,1.3,63,0.00,,,0.03,WUHU216HW,2013-04-17 03:08:00,
2013-04-16 20:13:00,49.3,37.3,30.27,West,270,0.7,1.3,63,0.00,,,0.03,WUHU216HW,2013-04-17 03:13:00,
2013-04-16 20:18:00,49.0,37.3,30.28,West,270,0.0,1.3,64,0.00,,,0.03,WUHU216HW,2013-04-17 03:18:00,
2013-04-16 20:23:00,48.8,36.7,30.28,West,270,0.0,1.3,63,0.00,,,0.03,WUHU216HW,2013-04-17 03:23:00,
2013-04-16 20:29:00,48.6,36.5,30.28,WNW,293,1.1,1.6,63,0.00,,,0.03,WUHU216HW,2013-04-17 03:29:00,
2013-04-16 20:34:00,48.4,36.4,30.28,WNW,293,0.9,1.6,63,0.00,,,0.03,WUHU216HW,2013-04-17 03:34:00,
2013-04-16 20:39:00,48.2,36.3,30.29,WNW,293,0.4,1.3,63,0.00,,,0.03,WUHU216HW,2013-04-17 03:39:00,
2013-04-16 20:44:00,48.1,36.1,30.29,North,0,0.0,1.8,63,0.00,,,0.03,WUHU216HW,2013-04-17 03:44:00,
2013-04-16 20:49:00,48.1,36.1,30.29,North,0,0.4,1.8,63,0.00,,,0.03,WUHU216HW,2013-04-17 03:49:00,
2013-04-16 20:54:00,47.9,36.3,30.30,North,0,0.0,0.7,64,0.00,,,0.03,WUHU216HW,2013-04-17 03:54:00,
2013-04-16 20:59:00,47.9,36.3,30.30,North,0,0.0,0.4,64,0.00,,,0.03,WUHU216HW,2013-04-17 03:59:00,
2013-04-16 21:00:00,47.9,36.3,30.30,North,0,0.0,0.4,64,0.00,,,0.03,WUHU216HW,2013-04-17 04:00:00,
2013-04-16 21:01:00,47.9,36.3,30.30,North,0,0.0,0.4,64,0.00,,,0.03,WUHU216HW,2013-04-17 04:01:00,
2013-04-16 21:06:00,47.9,36.3,30.30,SSE,158,0.7,0.7,64,0.00,,,0.03,WUHU216HW,2013-04-17 04:06:00,
2013-04-16 21:11:00,47.7,36.5,30.30,SSW,203,0.4,0.9,65,0.00,,,0.03,WUHU216HW,2013-04-17 04:11:00,
2013-04-16 21:17:00,47.5,36.3,30.30,SSW,203,0.0,1.8,65,0.00,,,0.03,WUHU216HW,2013-04-17 04:17:00,
2013-04-16 21:22:00,47.3,36.6,30.30,SSW,203,1.1,1.8,66,0.00,,,0.03,WUHU216HW,2013-04-17 04:22:00,
2013-04-16 21:27:00,47.2,36.4,30.30,SSE,158,1.3,1.8,66,0.00,,,0.03,WUHU216HW,2013-04-17 04:27:00,
2013-04-16 21:32:00,47.0,36.5,30.30,SSE,158,1.3,2.0,67,0.00,,,0.03,WUHU216HW,2013-04-17 04:32:00,
2013-04-16 21:37:00,46.8,36.5,30.30,SSE,158,2.7,3.4,67,0.00,,,0.03,WUHU216HW,2013-04-17 04:37:00,
2013-04-16 21:42:00,46.6,36.3,30.30,South,180,1.1,4.7,67,0.00,,,0.03,WUHU216HW,2013-04-17 04:42:00,
2013-04-16 21:47:00,46.4,36.5,30.30,South,180,0.4,4.7,68,0.00,,,0.03,WUHU216HW,2013-04-17 04:47:00,
2013-04-16 21:52:00,46.4,36.5,30.30,South,180,2.5,2.5,68,0.00,,,0.03,WUHU216HW,2013-04-17 04:52:00,
2013-04-16 21:57:00,46.3,36.3,30.30,SSE,158,0.7,2.5,68,0.00,,,0.03,WUHU216HW,2013-04-17 04:57:00,
2013-04-16 22:02:00,46.3,36.3,30.30,SSE,158,1.1,2.5,68,0.00,,,0.03,WUHU216HW,2013-04-17 05:02:00,
2013-04-16 22:08:00,46.1,36.1,30.31,SSE,158,2.0,2.2,68,0.00,,,0.03,WUHU216HW,2013-04-17 05:08:00,
2013-04-16 22:13:00,45.7,35.7,30.30,South,180,1.3,2.2,68,0.00,,,0.03,WUHU216HW,2013-04-17 05:13:00,
2013-04-16 22:18:00,45.5,36.0,30.31,South,180,1.1,1.8,69,0.00,,,0.03,WUHU216HW,2013-04-17 05:18:00,
2013-04-16 22:23:00,45.4,35.8,30.31,South,180,1.3,1.8,69,0.00,,,0.03,WUHU216HW,2013-04-17 05:23:00,
2013-04-16 22:28:00,45.0,35.5,30.31,South,180,0.7,1.8,69,0.00,,,0.03,WUHU216HW,2013-04-17 05:28:00,
2013-04-16 22:33:00,44.8,35.6,30.31,South,180,1.1,1.8,70,0.00,,,0.03,WUHU216HW,2013-04-17 05:33:00,
2013-04-16 22:38:00,44.5,35.3,30.31,South,180,1.1,2.0,70,0.00,,,0.03,WUHU216HW,2013-04-17 05:38:00,
2013-04-16 22:43:00,44.3,35.5,30.31,SSE,158,1.6,2.5,71,0.00,,,0.03,WUHU216HW,2013-04-17 05:43:00,
2013-04-16 22:48:00,44.1,35.3,30.31,South,180,2.5,2.5,71,0.00,,,0.03,WUHU216HW,2013-04-17 05:48:00,
2013-04-16 22:53:00,43.9,35.5,30.31,SSE,158,1.3,2.5,72,0.00,,,0.03,WUHU216HW,2013-04-17 05:53:00,
2013-04-16 22:58:00,43.7,35.0,30.31,SE,135,0.4,2.5,71,0.00,,,0.03,WUHU216HW,2013-04-17 05:58:00,
2013-04-16 23:03:00,43.6,34.8,30.31,South,180,0.4,2.5,71,0.00,,,0.03,WUHU216HW,2013-04-17 06:03:00,
2013-04-16 23:09:00,43.6,34.8,30.31,South,180,1.8,2.5,71,0.00,,,0.03,WUHU216HW,2013-04-17 06:09:00,
2013-04-16 23:14:00,43.4,34.7,30.31,South,180,1.1,2.2,71,0.00,,,0.03,WUHU216HW,2013-04-17 06:14:00,
2013-04-16 23:19:00,43.2,34.8,30.31,SSW,203,0.4,1.8,72,0.00,,,0.03,WUHU216HW,2013-04-17 06:19:00,
2013-04-16 23:24:00,43.0,34.7,30.31,NW,315,0.0,1.8,72,0.00,,,0.03,WUHU216HW,2013-04-17 06:24:00,
2013-04-16 23:29:00,42.8,34.5,30.32,NW,315,0.0,0.2,72,0.00,,,0.03,WUHU216HW,2013-04-17 06:29:00,
2013-04-16 23:34:00,42.7,34.7,30.31,NW,315,0.0,0.0,73,0.00,,,0.03,WUHU216HW,2013-04-17 06:34:00,
2013-04-16 23:39:00,42.3,34.3,30.31,WSW,248,0.4,0.7,73,0.00,,,0.03,WUHU216HW,2013-04-17 06:39:00,
2013-04-16 23:44:00,42.1,34.4,30.32,SE,135,0.0,0.7,74,0.00,,,0.03,WUHU216HW,2013-04-17 06:44:00,
2013-04-16 23:49:00,41.9,34.2,30.31,SE,135,0.0,0.7,74,0.00,,,0.03,WUHU216HW,2013-04-17 06:49:00,
2013-04-16 23:54:00,41.8,34.0,30.32,SSE,158,0.0,0.0,74,0.00,,,0.03,WUHU216HW,2013-04-17 06:54:00,
2013-04-16 23:59:00,41.4,33.7,30.32,SSW,203,0.0,0.2,74,0.00,,,0.00,WUHU216HW,2013-04-17 06:59:00,